FW0788 Weather Reports


Display with metric or nautical units.
time (UTC)temp
F
wind
direction
speed
MPH
gust
MPH
rain 1hr
in
rain 24hr
in
rain mn
in
humidity
%
barometer
mb
20260508181520 39 129 0.0 1.0 0.00 0.00 0.00 92 1019.7
20260508180008 40 129 0.0 0.0 0.00 0.00 0.00 92 1019.5
20260508174506 40 129 0.0 0.0 0.00 0.00 0.00 92 1019.4
20260508173004 40 129 0.0 0.0 0.00 0.00 0.00 92 1019.4
20260508171506 40 129 0.0 0.0 0.00 0.00 0.00 92 1019.5
20260508164604 40 129 0.0 0.0 0.00 0.00 0.00 92 1019.5
20260508163059 40 129 0.0 1.0 0.00 0.00 0.00 91 1019.3
20260508161603 40 129 0.0 0.0 0.00 0.00 0.00 91 1019.4
20260508160059 41 129 0.0 0.0 0.00 0.00 0.00 91 1019.4
20260508154553 41 129 0.0 0.0 0.00 0.00 0.00 91 1019.4
20260508153050 41 129 0.0 0.0 0.00 0.00 0.00 91 1019.5
20260508151554 41 129 0.0 0.0 0.00 0.00 0.00 91 1019.4
20260508150047 41 129 0.0 0.0 0.00 0.00 0.00 91 1019.3
20260508144545 41 129 0.0 0.0 0.00 0.00 0.00 91 1019.2
20260508143044 42 129 0.0 0.0 0.00 0.00 0.00 91 1019.3
20260508141542 42 129 0.0 0.0 0.00 0.00 0.00 90 1019.3
20260508140040 42 128 0.0 0.0 0.00 0.00 0.00 90 1019.1
20260508134537 42 128 0.0 0.0 0.00 0.00 0.00 90 1019.1
20260508133057 43 128 0.0 0.0 0.00 0.00 0.00 90 1019.0
20260508131536 43 128 0.0 0.0 0.00 0.00 0.00 89 1019.0
20260508130034 43 128 0.0 0.0 0.00 0.00 0.00 89 1019.1
20260508124533 44 128 0.0 0.0 0.00 0.00 0.00 88 1019.0
20260508123028 44 128 0.0 0.0 0.00 0.00 0.00 89 1019.1
20260508121530 44 128 0.0 0.0 0.00 0.00 0.00 88 1019.1
20260508120025 45 128 0.0 0.0 0.00 0.00 0.00 88 1019.0
20260508114526 45 128 0.0 0.0 0.00 0.00 0.00 87 1019.0
20260508113030 45 128 0.0 0.0 0.00 0.00 0.00 86 1019.0
20260508111519 46 128 0.0 2.0 0.00 0.00 0.00 85 1018.9
20260508110018 47 128 0.0 0.0 0.00 0.00 0.00 84 1018.9
20260508104513 48 128 0.0 0.0 0.00 0.00 0.00 83 1018.7
20260508103014 48 128 0.0 1.0 0.00 0.00 0.00 82 1018.5
20260508101511 49 128 0.0 0.0 0.00 0.00 0.00 81 1018.5
20260508100009 50 128 0.0 0.0 0.00 0.00 0.00 79 1018.3
20260508094510 51 128 0.0 1.0 0.00 0.00 0.00 77 1018.3
20260508093007 52 128 0.0 0.0 0.00 0.00 0.00 75 1018.2
20260508091509 52 128 0.0 1.0 0.00 0.00 0.00 74 1017.9
20260508090011 52 134 0.0 2.0 0.00 0.00 0.00 75 1017.7
20260508084502 53 134 0.0 1.0 0.00 0.00 0.00 75 1017.6
20260508083100 54 175 0.0 1.0 0.00 0.00 0.00 73 1017.2
20260508081558 54 215 0.0 0.0 0.00 0.00 0.00 72 1017.1
20260508080058 55 215 0.0 1.0 0.00 0.00 0.00 72 1016.8
20260508074554 57 126 0.0 1.0 0.00 0.00 0.00 68 1016.5
20260508073053 58 90 0.0 1.0 0.00 0.00 0.00 67 1016.3
20260508071553 59 119 0.0 4.0 0.00 0.00 0.00 65 1016.1
20260508070049 59 124 0.0 4.0 0.00 0.00 0.00 64 1016.0
20260508064550 60 112 0.0 4.0 0.00 0.00 0.00 62 1015.6
20260508063115 61 132 0.0 2.0 0.00 0.00 0.00 57 1015.7
20260508061543 61 67 0.0 6.0 0.00 0.00 0.00 56 1015.2
20260508060043 62 143 0.0 3.0 0.00 0.00 0.00 56 1015.0
20260508054543 63 65 0.0 4.0 0.00 0.00 0.00 54 1014.8
20260508053051 63 119 0.0 6.0 0.00 0.00 0.00 54 1014.7
20260508051603 63 200 0.0 6.0 0.00 0.00 0.00 54 1014.7
20260508050040 62 101 1.0 8.0 0.00 0.00 0.00 55 1014.5
20260508044535 64 164 1.0 7.0 0.00 0.00 0.00 53 1014.2
20260508043035 64 103 0.0 3.0 0.00 0.00 0.00 53 1014.1
20260508041533 63 167 0.0 8.0 0.00 0.00 0.00 56 1014.3
20260508040033 64 323 0.0 3.0 0.00 0.00 0.00 51 1014.1
20260508034532 64 76 0.0 8.0 0.00 0.00 0.00 51 1013.9
20260508033034 64 62 0.0 3.0 0.00 0.00 0.00 50 1013.8
20260508031530 63 105 0.0 2.0 0.00 0.00 0.00 54 1013.9
20260508030029 62 154 0.0 1.0 0.00 0.00 0.00 54 1013.7
20260508024531 63 155 0.0 2.0 0.00 0.00 0.00 51 1013.9
20260508023032 64 136 0.0 4.0 0.00 0.00 0.00 53 1013.9
20260508021533 63 159 0.0 4.0 0.00 0.00 0.00 50 1013.8
20260508020026 64 127 0.0 7.0 0.00 0.00 0.00 49 1013.9
20260508014523 64 96 0.0 3.0 0.00 0.00 0.00 54 1013.7
20260508013020 63 105 0.0 5.0 0.00 0.00 0.00 52 1013.8
20260508011522 62 122 0.0 4.0 0.00 0.00 0.00 53 1013.6
20260508010031 63 89 0.0 6.0 0.00 0.00 0.00 53 1013.6
20260508004513 62 94 0.0 4.0 0.00 0.00 0.00 56 1013.2
20260508003009 61 36 0.0 4.0 0.00 0.00 0.00 56 1013.1
20260508001504 60 114 0.0 4.0 0.00 0.00 0.00 56 1012.7
20260508000002 60 149 0.0 2.0 0.00 0.00 0.00 56 1012.4
20260507234558 60 115 0.0 3.0 0.00 0.00 0.00 55 1012.4
20260507233053 59 99 0.0 2.0 0.00 0.00 0.00 59 1012.2
20260507231550 58 151 0.0 4.0 0.00 0.00 0.00 58 1011.8
20260507230105 58 103 0.0 3.0 0.00 0.00 0.00 58 1011.5
20260507224542 57 97 0.0 2.0 0.00 0.00 0.00 60 1011.2
20260507223106 55 109 0.0 2.0 0.00 0.00 0.00 61 1011.0
20260507221532 54 94 0.0 2.0 0.00 0.00 0.00 62 1010.8
20260507220029 54 149 0.0 6.0 0.00 0.00 0.00 63 1010.4
20260507214525 54 234 0.0 1.0 0.00 0.00 0.00 61 1010.1
20260507213022 54 117 0.0 2.0 0.00 0.00 0.00 62 1009.7
20260507211520 54 195 0.0 2.0 0.00 0.00 0.00 61 1009.3
20260507210019 54 59 1.0 9.0 0.00 0.00 0.00 62 1008.8
20260507204515 54 89 0.0 8.0 0.00 0.00 0.00 62 1008.4
20260507203029 54 132 0.0 6.0 0.00 0.00 0.00 65 1008.4
20260507201513 54 102 0.0 8.0 0.00 0.00 0.00 64 1008.5
20260507200022 54 115 0.0 6.0 0.00 0.00 0.00 64 1008.3
20260507194510 55 171 0.0 4.0 0.00 0.00 0.00 62 1008.1
20260507193024 55 172 0.0 5.0 0.00 0.00 0.00 64 1007.9
20260507191507 55 109 0.0 4.0 0.00 0.00 0.00 65 1007.7
20260507190006 54 146 1.0 12.0 0.00 0.00 0.00 66 1007.6
20260507184509 49 250 0.0 3.0 0.00 0.00 0.00 78 1007.6
20260507183100 49 245 0.0 0.0 0.00 0.00 0.00 82 1007.6